2021-006EG (47615 NORAD) Tracking and Keplerian Element Data

This shows tracking and keplerian element data for the satellite.

Feedback or suggestion? Click here.




ElementValue
Catalog47615
Name2021-006EG
Epoch Orbit377
Epoch Day53.64796051
Epoch Year2021
RAAN116.8265
Inclination97.5047
Eccentricity0.0011207
Argument of Perigee136.6729
Mean Anonmoly223.5384
Mean Motion15.12294157
Decay Rate2.065E-05
L11 47615U 21006EG 21053.64796051 .00002065 00000-0 12289-3 0 9999
L22 47615 97.5047 116.8265 0011207 136.6729 223.5384 15.12294157 3772

Live tracking and technical data element details for 2021-006EG (NORAD 47615). 2021-006EG can be tracked NOW for your location showing map with azimuth and elevation plus other details from your city location.

Track the satellite on the map from your city or location and see movement details for azimuth, elevation, latitude, longitude, range, height, and movement on the map or in text.







IsCatalogInMostPopularTable: catalog: 47615, numindb: 1
Update: records affected: 1



GetName: 47615 2021-006EG

Hit Count: updated at: Fri, 26 Feb 2021 10:18:38 GMT